Location: Adelsborn
(51.4483°N, 10.3536°E)
Time: 16:27:02
(UTC+00:00)

Daily predictions for brighter satellites

Satellite Brightness Start Highest point End
(mag) Time Altitude Azimuth Time Altitude Azimuth Time Altitude Azimuth
H-2A R/B 3.3 17:19:27 10° ESE 17:23:39 24° ENE 17:27:53 10° N
Cosmos 1238 Rocket 4.5 17:17:31 10° SSW 17:24:07 74° WNW 17:30:42 10° N
STARLINK-1010 3.0 17:21:53 10° WSW 17:25:11 86° SSE 17:28:28 10° ENE
STARLINK-81 3.6 17:21:54 10° WSW 17:25:56 90° WNW 17:29:58 10° ENE
STARLINK-54 3.6 17:23:44 10° WSW 17:27:47 87° NNW 17:31:50 10° ENE
Cosmos 2263 Rocket 4.5 17:28:12 10° N 17:29:01 10° N 17:29:51 10° NNE
STARLINK-77 3.6 17:25:12 10° WSW 17:29:14 88° N 17:33:17 10° ENE
STARLINK-25 3.6 17:26:52 10° WSW 17:30:53 87° NNW 17:34:57 10° ENE
STARLINK-1037 4.1 17:27:09 10° SW 17:31:08 48° SSE 17:35:08 10° ENE
STARLINK-71 3.6 17:28:44 10° WSW 17:32:46 84° NNW 17:36:49 10° ENE
Cosmos 2369 Rocket 2.2 17:28:33 10° SSW 17:34:12 74° ESE 17:39:55 10° NNE
STARLINK-79 3.6 17:30:10 10° WSW 17:34:13 85° NNW 17:38:16 10° ENE
Cosmos 1812 3.4 17:30:34 10° NNW 17:34:24 62° W 17:38:13 10° S
YAOGAN 1 2.5 17:30:07 10° SSE 17:34:25 72° ENE 17:38:46 10° N
YAOGAN 6 3.9 17:31:17 10° S 17:34:38 44° W 17:38:00 10° NNW
Cosmos 1633 Rocket 3.0 17:30:59 10° S 17:35:19 87° E 17:39:43 10° N
Cosmos 1725 Rocket 4.2 17:29:34 10° SSW 17:35:45 81° W 17:42:02 10° N
STARLINK-78 3.6 17:31:50 10° WSW 17:35:53 84° N 17:39:53 10° ENE
STARLINK-1059 4.0 17:32:11 10° SW 17:36:12 51° SSE 17:40:11 10° ENE
STARLINK-43 3.3 17:32:40 10° WNW 17:36:24 86° SSW 17:40:06 10° ESE
FREGAT/IRIS 4.4 17:35:52 11° E 17:36:59 12° ENE 17:38:14 10° NE
STARLINK-57 3.6 17:33:35 10° WSW 17:37:37 82° N 17:41:34 11° ENE
Cosmos 1939 Rocket 2.9 17:33:38 10° SSE 17:37:45 66° ENE 17:41:52 10° N
STARLINK-49 3.6 17:35:09 10° WSW 17:39:11 83° NNW 17:43:04 11° ENE
STARLINK-27 3.6 17:36:47 10° WSW 17:40:49 82° NNW 17:44:38 11° ENE
STARLINK-1057 3.9 17:37:06 10° SW 17:41:08 54° SSE 17:44:56 11° ENE
COSMOS 2487 2.4 17:38:02 10° NNW 17:41:29 60° ENE 17:44:53 10° SE
STARLINK-74 3.6 17:38:27 10° W 17:42:29 81° NNW 17:46:14 12° ENE
STARLINK-58 3.3 17:39:06 10° W 17:42:39 72° N 17:45:52 12° ENE
SKYMED 2 3.6 17:38:31 10° NNE 17:42:54 88° ESE 17:47:15 10° SSW
USA 116 4.1 17:39:19 10° NNE 17:43:19 51° E 17:47:47 10° S
STARLINK-39 3.6 17:40:06 10° W 17:44:08 81° NNW 17:47:50 12° ENE
STARLINK-62 3.3 17:40:47 10° W 17:44:21 71° N 17:47:29 13° ENE
Lacrosse 4 Rocket 3.4 17:40:51 10° W 17:44:32 27° NW 17:48:19 10° NNE
Cosmos 1666 Rocket 4.1 17:40:24 10° SSW 17:44:51 65° WNW 17:49:20 10° N
Cosmos 1933 Rocket 3.8 17:41:13 10° SSE 17:45:25 47° E 17:49:38 10° NNE
STARLINK-31 3.6 17:41:48 10° W 17:45:50 80° N 17:49:26 13° ENE
STARLINK-34 3.3 17:42:25 10° W 17:45:58 71° N 17:49:03 13° ENE
STARLINK-1034 3.8 17:42:02 10° SW 17:46:06 57° SSE 17:49:44 13° ENE
STARLINK-1016 3.1 17:43:36 10° W 17:46:58 80° NNW 17:49:51 14° ENE
CZ-4 R/B 1.8 17:42:49 10° S 17:46:59 69° WSW 17:51:06 10° NNW
STARLINK-69 3.6 17:43:38 10° W 17:47:40 78° N 17:51:12 13° ENE
Cosmos 1464 Rocket 4.5 17:41:55 10° SSE 17:47:42 38° E 17:53:31 10° NNE
STARLINK-48 3.5 17:44:01 10° W 17:47:55 71° N 17:51:12 14° E
STARLINK-1008 3.1 17:44:49 10° W 17:48:12 79° NNW 17:51:03 14° ENE
STARLINK-21 3.6 17:45:07 10° W 17:49:09 78° NNW 17:52:38 14° ENE
ARGOS 4.0 17:44:43 10° ESE 17:49:24 31° ENE 17:54:07 10° N
Cosmos 405 3.4 17:46:29 10° N 17:49:52 41° ENE 17:53:15 10° SE
STARLINK-22 3.2 17:47:03 10° W 17:50:20 67° N 17:52:58 15° ENE
STARLINK-45 3.6 17:47:00 10° W 17:51:01 76° N 17:54:25 14° ENE
STARLINK-1068 3.8 17:46:59 10° SW 17:51:04 60° SSE 17:54:31 14° ENE
STARLINK-41 3.2 17:48:31 10° W 17:51:50 66° N 17:54:25 16° ENE
HJ-1C 3.7 17:48:55 10° SE 17:52:04 42° ENE 17:55:13 10° N
STARLINK-61 3.6 17:48:10 10° W 17:52:05 69° N 17:55:16 15° E
STARLINK-1025 3.1 17:48:42 10° W 17:52:05 78° NNW 17:54:46 15° ENE
STARLINK-70 3.6 17:48:33 10° W 17:52:35 76° N 17:55:56 15° ENE
USA 186 3.1 17:52:46 15° ENE 17:52:46 15° ENE 17:54:19 10° NNE
NOSS 2-3 (E) 3.8 17:48:49 10° SSW 17:53:11 71° SE 17:58:30 10° NE
STARLINK-75 3.2 17:50:11 10° W 17:53:32 65° N 17:56:05 16° ENE
STARLINK-1017 3.1 17:50:39 10° W 17:54:02 77° NNW 17:56:39 16° ENE
STARLINK-76 3.6 17:50:05 10° W 17:54:07 77° N 17:57:24 15° ENE
CZ-2D R/B 3.3 17:50:16 10° SSE 17:54:09 88° WSW 17:58:05 10° NNW
STARLINK-23 3.6 17:51:44 10° W 17:55:46 76° N 17:58:59 16° ENE
CSL-04 Rocket 3.8 17:50:17 10° SSE 17:55:48 85° WSW 18:01:18 10° NNW
STARLINK-32 3.6 17:53:23 10° W 17:57:26 76° N 18:00:34 16° ENE
USA 234 3.7 17:52:39 11° ENE 17:58:50 56° N 18:05:12 10° W
STARLINK-40 3.6 17:55:03 10° W 17:59:05 75° N 18:02:10 17° ENE
Cosmos 1898 Rocket 3.5 17:54:09 10° NNW 17:59:20 66° ENE 18:04:29 10° SE
STARLINK-1048 3.1 17:56:33 10° W 17:59:57 74° N 18:02:20 18° ENE
NOSS 3-2 (A) 4.3 17:53:41 10° NW 18:00:29 48° NNE 18:06:56 15° E
STARLINK-44 3.6 17:56:43 10° W 18:00:45 75° N 18:03:45 17° ENE
STARLINK-1060 3.7 17:56:54 10° WSW 18:01:01 67° SSE 18:04:05 17° ENE
SJ-6B 3.8 17:59:30 15° ESE 18:01:40 24° ENE 18:04:48 10° N
STARLINK-1049 3.2 17:58:33 10° W 18:01:57 73° N 18:04:15 19° ENE
STARLINK-37 3.6 17:58:30 10° W 18:02:32 73° N 18:05:28 18° ENE
STARLINK-1051 3.2 18:00:35 10° W 18:03:59 73° N 18:06:13 20° ENE
STARLINK-36 3.6 18:00:01 10° W 18:04:03 74° N 18:06:55 18° ENE
Lacrosse 5 3.1 18:01:08 10° S 18:04:57 22° SE 18:06:56 17° E
STARLINK-1028 3.2 18:01:49 10° W 18:05:13 72° N 18:07:24 20° ENE
STARLINK-68 3.6 18:01:53 10° W 18:05:54 72° N 18:08:42 19° ENE
STARLINK-1030 3.6 18:01:53 10° WSW 18:05:59 70° SSE 18:08:53 19° ENE
Cosmos 2263 4.3 18:00:38 10° SSW 18:06:25 90° WNW 18:12:13 10° NNE
STARLINK-1021 3.2 18:03:52 10° W 18:07:15 71° N 18:09:23 21° ENE
SPOT 3 Rocket 4.4 18:03:29 13° ESE 18:07:25 30° ENE 18:11:56 10° N
STARLINK-63 3.6 18:03:26 10° W 18:07:28 72° N 18:10:12 20° ENE
Cosmos 1763 Rocket 4.1 18:03:22 10° SSE 18:08:00 33° ESE 18:12:43 10° NE
NOSS 2-3 (D) 3.7 18:03:52 10° SW 18:08:16 83° SE 18:13:39 10° NE
STARLINK-35 3.6 18:05:01 10° W 18:09:02 72° N 18:11:42 20° ENE
STARLINK-80 3.3 18:05:12 10° WNW 18:09:02 88° NNE 18:11:28 21° ESE
STARLINK-1019 3.2 18:05:55 10° W 18:09:20 71° N 18:11:21 22° ENE
Cosmos 2034 Rocket 4.4 18:03:55 10° SSE 18:09:32 39° E 18:15:11 10° NNE
IRS-1A Rocket 4.2 18:04:46 10° SSE 18:10:11 62° ENE 18:15:38 10° N
STARLINK-51 3.6 18:06:40 10° W 18:10:41 72° N 18:13:17 21° ENE
STARLINK-1020 3.6 18:06:50 10° WSW 18:10:57 73° SSE 18:13:39 21° ENE
USA 229 DEB 4.1 18:04:25 10° WSW 18:11:00 63° NW 18:17:59 10° NE
CZ-2C R/B 3.6 18:05:35 10° SE 18:11:00 43° ENE 18:16:17 10° N
USA 229 4.1 18:04:31 10° WSW 18:11:06 64° NW 18:18:05 10° NE
STARLINK-1012 3.2 18:08:00 10° W 18:11:25 70° N 18:13:22 23° ENE
STARLINK-30 3.6 18:08:19 10° W 18:12:21 72° N 18:14:53 22° ENE
STARLINK 1040 2.8 18:09:58 10° W 18:12:46 61° N 18:14:00 28° ENE
STARLINK-72 3.6 18:10:01 10° W 18:14:02 71° N 18:16:30 22° ENE
Timation 2 Rocket 4.2 18:08:04 10° NNW 18:15:00 82° ENE 18:21:53 10° SE
STARLINK-1026 3.2 18:12:09 10° W 18:15:34 69° N 18:17:21 26° ENE
STARLINK-50 3.6 18:11:40 10° W 18:15:41 71° N 18:18:05 23° ENE
STARLINK-1052 3.6 18:11:48 10° WSW 18:15:55 77° SSE 18:18:26 23° ENE
CENTAUR R/B 3.6 18:09:02 10° NW 18:16:07 43° NNE 18:21:50 19° E
Cosmos 2297 Rocket 3.0 18:11:09 10° NNW 18:16:16 33° NE 18:19:12 21° E
STARLINK-1047 3.6 18:12:27 10° WSW 18:16:37 78° SSE 18:19:08 23° ENE
STARLINK-59 3.6 18:13:24 10° W 18:17:25 70° N 18:19:44 24° ENE
STARLINK-26 3.1 18:14:05 10° WNW 18:17:33 77° N 18:19:13 29° E
STARLINK-1013 3.2 18:14:15 10° W 18:17:40 69° N 18:19:22 27° ENE
STARLINK-1063 4.5 18:14:07 10° SSW 18:17:48 32° SE 18:19:20 24° ESE
Cosmos 1346 Rocket 3.0 18:13:56 10° SSW 18:17:54 74° WNW 18:21:51 10° N
NOSS 3-1 (A) 3.6 18:12:18 10° SW 18:18:00 75° NW 18:24:47 10° NE
Cosmos 389 Rocket 4.5 18:15:50 10° NNE 18:17:19 15° NE 18:17:19 15° NE
STARLINK-56 3.6 18:14:57 10° W 18:18:58 71° N 18:21:14 25° ENE
STARLINK-1009 3.2 18:16:20 10° W 18:19:45 68° N 18:21:23 28° ENE
Cosmos 1943 Rocket 3.2 18:15:16 10° SW 18:20:38 47° NW 18:26:00 10° NNE
STARLINK-73 3.6 18:16:38 10° W 18:20:40 70° N 18:22:51 26° ENE
Cosmos 858 Rocket 4.4 18:15:47 10° NNW 18:21:02 73° ENE 18:26:14 10° SSE
STARLINK-1015 3.2 18:18:27 10° W 18:21:52 68° N 18:23:25 30° ENE
ARGOS Delta rocket 4.2 18:19:30 19° SE 18:22:09 36° ENE 18:26:18 10° N
STARLINK-38 3.6 18:18:18 10° W 18:22:19 70° N 18:24:27 26° ENE
Cosmos 44 Rocket 3.3 18:17:52 10° NW 18:22:38 79° SW 18:27:05 12° SE
STARLINK-1064 4.4 18:19:00 10° SSW 18:22:46 34° SE 18:24:08 27° ESE
Orbus 7S? 4.1 18:16:32 10° WSW 18:23:22 61° NNW 18:25:38 20° NE
STARLINK-65 3.6 18:19:56 10° W 18:23:58 70° N 18:26:01 27° ENE
STARLINK-1023 3.1 18:20:51 10° W 18:24:06 66° N 18:25:23 33° ENE
STARLINK-1014 3.3 18:21:20 10° W 18:24:50 71° N 18:26:22 31° ENE
Cosmos 1470 Rocket 4.4 18:21:07 10° SSW 18:25:25 54° WNW 18:29:47 10° N
STARLINK-53 3.6 18:21:41 10° W 18:25:42 69° N 18:27:41 28° ENE
STARLINK-1033 3.5 18:21:43 10° WSW 18:25:51 83° SSE 18:27:59 28° ENE
Cosmos 1092 Rocket 4.4 18:20:40 10° N 18:26:43 44° ENE 18:32:15 12° SE
STARLINK-1041 4.3 18:23:53 10° SSW 18:27:41 36° SE 18:28:53 30° ESE
Cosmos 1340 3.9 18:24:33 10° SW 18:28:10 44° WNW 18:31:48 10° N
STARLINK-64 3.4 18:24:38 10° W 18:28:15 67° N 18:29:38 34° ENE
Cosmos 220 Rocket 4.3 18:24:48 10° S 18:28:51 41° ESE 18:32:26 12° NE
ATLAS 3B R/B 3.6 18:24:01 10° NW 18:30:02 34° NNE 18:33:52 20° ENE
Cosmos 1515 3.8 18:26:59 10° N 18:30:41 48° ENE 18:32:26 27° SE
COSMO-SKYMED 1 4.3 18:26:54 10° N 18:30:51 34° WNW 18:34:46 10° SW
Ariane Rocket 3.0 18:26:07 10° SSE 18:31:14 89° W 18:36:23 10° NNW
Genesis I 3.2 18:27:55 10° NW 18:31:46 58° NE 18:33:08 35° ESE
Meteor 1-20 Rocket 4.1 18:26:58 10° S 18:32:29 88° E 18:38:06 10° NNE
STARLINK-1038 4.2 18:28:47 10° SW 18:32:39 39° SSE 18:33:40 33° ESE
Okean 1-7 3.2 18:29:36 10° NNW 18:33:56 75° W 18:38:16 10° S
Cosmos 2227 Rocket 2.8 18:30:04 10° NNW 18:35:20 38° NE 18:37:30 28° E
STARLINK-1024 3.5 18:31:41 10° WSW 18:35:50 89° SSE 18:37:34 34° ENE
Cosmos 990 Rocket 4.3 18:31:48 10° NNW 18:36:55 67° WSW 18:42:01 10° SSE
Cosmos 540 Rocket 4.2 18:32:52 10° SSE 18:36:48 29° ESE 18:36:48 29° ESE
STARLINK-1046 4.1 18:33:43 10° SW 18:37:37 41° SSE 18:38:29 36° ESE
GP-B 4.5 18:40:27 22° NE 18:40:27 22° NE 18:42:54 10° NNE
NOSS 2-3 (C) 4.3 18:38:03 10° WSW 18:42:32 61° NW 18:47:47 11° NE
STARLINK-1039 4.0 18:38:38 10° SW 18:42:35 44° SSE 18:43:16 40° ESE
STARLINK-33 2.9 18:42:17 10° WNW 18:45:34 72° N 18:45:56 63° ENE
STARLINK-1032 3.5 18:41:39 10° WSW 18:45:48 86° NNW 18:47:08 42° ENE
STARLINK-1035 3.6 18:41:47 10° WSW 18:46:04 84° N 18:47:30 41° ENE
Cosmos 1656 Rocket 4.0 18:41:33 10° SW 18:47:04 69° WNW 18:52:44 10° NNE
STARLINK-55 2.9 18:43:52 10° WNW 18:47:09 73° N 18:47:26 67° NE
STARLINK-1045 3.9 18:43:34 10° SW 18:47:32 46° SSE 18:48:02 44° SE
STARLINK-66 2.9 18:44:30 10° WNW 18:47:47 73° N 18:48:03 67° NE
Resurs 01 Rocket 2.5 18:48:01 31° ENE 18:48:01 31° ENE 18:51:44 10° N
STARLINK-1007 3.1 18:45:16 10° W 18:48:35 64° N 18:48:56 58° NE
STARLINK-28 2.9 18:45:29 10° WNW 18:48:46 76° N 18:48:59 71° NE
Cosmos 1937 Rocket 3.7 18:44:48 10° NNW 18:50:03 71° WSW 18:55:13 10° SSE
SJ 16-02 2.2 18:46:23 10° NNW 18:50:40 50° WSW 18:54:54 10° S
STARLINK-1011 3.5 18:46:38 10° WSW 18:50:47 84° NNW 18:51:55 47° ENE
Okean 1 4.1 18:47:01 10° NNW 18:50:56 53° W 18:54:49 10° S
STARLINK-42 2.9 18:48:26 10° WNW 18:51:41 72° N 18:51:45 71° NNE
Lacrosse 5 rocket 1.7 18:47:40 10° WNW 18:52:11 61° NNE 18:53:25 44° ENE
STARLINK-1050 3.8 18:48:31 10° SW 18:52:32 50° SSE 18:52:54 49° SE
APEX 4.5 18:50:01 10° S 18:54:49 42° ESE 19:00:43 10° NE
STARLINK-24 3.6 18:50:50 10° W 18:54:50 70° N 18:55:37 53° ENE
STARLINK-1031 3.6 18:50:45 10° W 18:54:51 79° NNW 18:55:47 52° ENE
STARLINK-1036 3.6 18:51:37 10° W 18:55:46 82° NNW 18:56:42 53° ENE
MOS 1 4.4 18:50:30 10° SSE 18:56:10 78° WSW 19:01:52 10° NNW
STARLINK-1027 3.7 18:52:26 10° W 18:56:42 78° N 18:57:43 51° ENE
STARLINK-1029 3.2 18:54:18 10° W 18:57:21 62° NNW 18:57:21 62° NNW
STARLINK-1055 3.7 18:53:28 10° SW 18:57:30 53° SSE 18:57:41 53° SE
Cosmos 1869 Rocket 3.5 18:53:35 10° S 18:57:59 85° W 19:02:23 10° N
STARLINK-1044 3.6 18:56:36 10° W 19:00:45 80° NNW 19:01:29 59° ENE
USA 238 DEB 3.8 18:54:03 10° NW 19:01:12 76° NE 19:04:45 34° ESE
USA 238 3.8 18:54:08 10° NW 19:01:18 76° NE 19:04:49 34° ESE
STARLINK-1010 3.3 18:58:24 10° W 19:01:28 62° NNW 19:01:28 62° NNW
Cosmos 2219 3.1 18:56:36 10° NNW 19:02:23 75° ENE 19:04:43 37° SE
STARLINK-1022 3.7 18:58:24 10° SW 19:02:27 56° SSE 19:02:27 56° SSE
H-2A R/B 2.3 18:57:10 10° S 19:02:35 73° WSW 19:08:03 10° NNW
Meteor 1-14 Rocket 4.2 18:57:53 10° SSW 19:03:26 80° WNW 19:09:04 10° N
ADEOS Rocket 4.0 18:55:47 10° NNE 19:03:28 65° WNW 19:11:02 10° SSW
STARLINK-81 3.5 19:01:12 10° W 19:05:14 70° N 19:05:35 65° NE
Gbstr 26 Del rocket 3.1 19:01:38 10° SW 19:05:48 61° SSE 19:06:19 57° ESE
STARLINK-54 3.5 19:03:03 10° W 19:07:06 71° N 19:07:21 68° NE
Meteor 2-4 Rocket 3.8 19:01:14 10° NNW 19:07:11 86° WSW 19:12:52 11° S
FREGAT/IRIS 3.9 19:07:14 36° W 19:07:18 36° W 19:09:52 10° NNW
STARLINK-1042 3.7 19:03:21 10° SW 19:07:15 59° SSE 19:07:15 59° SSE
STARLINK-77 3.5 19:04:31 10° W 19:08:33 71° N 19:08:45 69° NNE
MetOp-A 4.0 19:07:56 38° SE 19:10:02 72° ENE 19:15:24 10° NNW
STARLINK-25 3.5 19:06:10 10° W 19:10:12 71° N 19:10:21 70° NNE
STARLINK-1037 3.5 19:06:29 10° W 19:10:38 76° N 19:10:57 71° NE
Cosmos 1627 Rocket 4.4 19:05:24 10° N 19:11:37 67° ENE 19:14:16 35° SSE
STARLINK-71 3.5 19:08:02 10° WNW 19:12:05 72° N 19:12:08 72° NNE
STARLINK-1056 3.8 19:08:18 10° SW 19:12:02 59° S 19:12:02 59° S
Terra 4.2 19:14:20 10° NNE 19:14:20 10° NNE 19:14:28 10° NNE
SL-08 RB Rocket 3.6 19:10:58 40° SSE 19:12:34 87° WSW 19:17:05 10° NNW
CZ-2C R/B 3.7 19:08:00 10° NNE 19:12:38 63° ESE 19:17:19 10° S
STARLINK-79 3.5 19:09:30 10° W 19:13:32 72° N 19:13:32 72° N
STARLINK-78 3.6 19:11:09 10° WNW 19:15:08 72° N 19:15:08 72° N
Cosmos 2263 Rocket 3.9 19:11:31 10° NNW 19:15:29 19° NNE 19:15:59 19° NE
STARLINK-1059 3.6 19:11:34 10° W 19:15:43 75° N 19:15:50 74° N
STARLINK-57 3.6 19:12:54 10° WNW 19:16:48 72° NNW 19:16:48 72° NNW
STARLINK-1054 3.9 19:13:14 10° WSW 19:16:47 58° SSW 19:16:47 58° SSW
Cosmos 372 Rocket 3.9 19:12:27 10° NNW 19:17:45 90° ENE 19:19:11 49° SSE
STARLINK-49 3.6 19:14:28 10° WNW 19:18:18 71° NNW 19:18:18 71° NNW
CZ-2C R/B 4.2 19:13:33 10° NNE 19:15:38 22° NE 19:15:38 22° NE
Cosmos 2369 Rocket 4.1 19:13:55 10° W 19:18:48 28° NW 19:23:43 10° NNE
STARLINK-27 3.7 19:16:06 10° WNW 19:19:53 70° NNW 19:19:53 70° NNW
STARLINK-58 3.9 19:16:37 10° WNW 19:19:27 53° WNW 19:19:27 53° WNW
STARLINK-1057 3.7 19:16:32 10° W 19:20:36 73° NNW 19:20:36 73° NNW
Meteor 1-11 Rocket 4.0 19:22:34 47° ENE 19:22:34 47° ENE 19:26:54 10° NNE
STARLINK-74 3.7 19:17:46 10° WNW 19:21:28 68° NW 19:21:28 68° NW
STARLINK-62 4.0 19:18:18 10° WNW 19:21:05 51° WNW 19:21:05 51° WNW
STARLINK-1062 4.0 19:18:11 10° WSW 19:21:34 55° SSW 19:21:34 55° SSW
USA 186 4.1 19:24:13 19° WNW 19:24:13 19° WNW 19:25:29 10° NW
STARLINK-39 3.8 19:19:26 10° WNW 19:23:04 67° NW 19:23:04 67° NW
STARLINK-34 4.1 19:19:55 10° WNW 19:22:38 49° WNW 19:22:38 49° WNW
Okean 3 3.8 19:19:24 10° NNW 19:23:35 63° W 19:24:38 45° SSW
STARLINK-1016 4.3 19:20:28 10° WNW 19:22:50 41° WNW 19:22:50 41° WNW
Lacrosse 4 Rocket 4.3 19:23:29 10° NNW 19:24:44 11° NNW 19:25:59 10° N
STARLINK-1008 4.4 19:21:44 10° WNW 19:24:04 40° WNW 19:24:04 40° WNW
STARLINK-31 3.8 19:21:06 10° WNW 19:24:41 65° NW 19:24:41 65° NW
STARLINK-1034 3.8 19:21:32 10° W 19:25:23 69° NW 19:25:23 69° NW
STARLINK-48 4.1 19:22:43 10° WNW 19:25:59 50° WSW 19:25:59 50° WSW
STARLINK-69 3.9 19:22:57 10° WNW 19:26:27 63° NW 19:26:27 63° NW
STARLINK-1053 4.2 19:23:11 10° WSW 19:26:23 51° SW 19:26:23 51° SW
STARLINK-21 4.0 19:24:27 10° WNW 19:27:53 61° NW 19:27:53 61° NW
ARGOS 3.9 19:24:09 10° S 19:29:26 52° W 19:34:46 10° NNW
STARLINK-45 4.0 19:26:19 10° WNW 19:29:40 59° WNW 19:29:40 59° WNW
STARLINK-1068 4.0 19:26:31 10° W 19:30:10 63° NW 19:30:10 63° NW
STARLINK-61 4.1 19:27:03 10° WNW 19:30:09 54° WNW 19:30:09 54° WNW
Cosmos 2026 Rocket 3.8 19:25:28 10° N 19:31:42 85° ENE 19:33:47 44° SSE
STARLINK-70 4.1 19:27:52 10° WNW 19:31:10 57° WNW 19:31:10 57° WNW
STARLINK-1061 4.4 19:28:07 10° WSW 19:31:08 46° SW 19:31:08 46° SW
STARLINK-76 4.2 19:29:24 10° WNW 19:32:39 55° WNW 19:32:39 55° WNW
STARLINK-23 4.2 19:31:03 10° WNW 19:34:13 53° WNW 19:34:13 53° WNW
SJ-6B 4.2 19:35:07 28° SW 19:36:12 34° W 19:39:43 10° NNW
STARLINK-32 4.3 19:32:42 10° WNW 19:35:48 51° WNW 19:35:48 51° WNW
STARLINK-40 4.4 19:34:21 10° WNW 19:37:24 49° WNW 19:37:24 49° WNW
STARLINK-44 4.5 19:36:01 10° WNW 19:39:00 47° WNW 19:39:00 47° WNW
Cosmos 1814 Rocket 4.0 19:35:00 10° SSW 19:46:24 - NNE 19:39:30 70° SSW
STARLINK-1060 4.4 19:36:30 10° W 19:39:44 51° WNW 19:39:44 51° WNW
USA 234 3.3 19:39:59 52° ENE 19:41:28 66° NNE 19:47:57 10° WNW
Cosmos 2298 Rocket 4.4 19:37:51 10° NNW 19:43:08 62° WSW 19:44:13 50° SSW
SPOT 3 Rocket 4.3 19:44:08 28° SSW 19:46:36 50° W 19:51:42 10° NNW
Lacrosse 5 2.3 19:42:15 10° SW 19:46:11 54° SW 19:46:11 54° SW
Cosmos 841 Rocket 3.6 19:43:01 10° SSW 19:48:10 74° WNW 19:53:23 10° NNE
Cosmos 2208 Rocket 4.3 19:43:49 10° SW 19:49:12 68° WNW 19:54:33 10° NNE
Cosmos 1674 Rocket 4.3 19:44:44 10° NNW 19:48:06 49° NNW 19:48:06 49° NNW
NOSS 3-2 (A) 4.1 19:44:34 10° NW 19:51:56 72° SW 19:54:22 48° SSE
Cosmos 1066 Rocket 4.2 19:49:04 10° NNW 19:54:33 78° NNE 19:54:33 78° NNE
NOSS 3-2 (C) 3.9 19:47:49 10° NW 19:55:11 89° SW 19:56:46 62° SE
Cosmos 1655 Rocket 4.1 19:52:06 10° N 19:57:51 63° NE 19:57:51 63° NE
Cosmos 2297 Rocket 2.5 19:55:06 10° NW 20:00:41 60° WSW 20:01:03 59° SW
Cosmos 2142 Rocket 4.5 20:05:40 71° NNE 20:05:40 71° NNE 20:11:10 10° N
CENTAUR R/B 3.0 19:59:53 10° NW 20:07:46 90° NE 20:09:02 69° SE
Cosmos 1125 Rocket 3.9 20:03:09 10° NNW 20:07:43 60° WNW 20:07:43 60° WNW
Cosmos 1634 Rocket 4.4 20:14:45 18° SSW 20:19:27 60° WNW 20:25:44 10° N
Cosmos 2227 Rocket 2.9 20:14:08 10° NW 20:19:21 49° WSW 20:19:21 49° WSW
ATLAS 3B R/B 2.7 20:14:57 10° NW 20:21:07 71° N 20:21:07 71° N
Resurs 01 Rocket 3.4 20:25:35 29° WNW 20:25:35 29° WNW 20:28:22 10° NNW
Cosmos 2082 4.3 20:19:22 10° NNW 20:23:58 55° WNW 20:23:58 55° WNW
Lacrosse 5 rocket 3.7 20:26:59 10° WNW 20:29:04 25° W 20:29:04 25° W
Terra 4.3 20:53:13 16° N 20:53:13 16° N 20:54:09 10° N
CZ-2C R/B 4.3 20:53:54 10° N 20:57:10 30° NNW 20:57:10 30° NNW
Cosmos 2263 Rocket 3.9 20:54:57 10° NNW 20:57:41 28° NNW 20:57:41 28° NNW
USA 234 4.4 21:27:19 36° WNW 21:27:19 36° WNW 21:31:04 10° WNW
CENTAUR R/B 4.5 21:51:07 10° NW 21:56:14 29° W 21:56:14 29° W
